sat.trackr.live / text

‹ back to catalog

STARLINK-35732

NORAD 67037 · 2025-294H

PAYLOAD ACTIVE UNKNOWN

§ Identity

Operator
Country
US
Launch date
2025-12-11
Launch site
AFETR
Launch vehicle
Mass (kg)
RCS (m²)

Purposes: comms

External: N2YO · Heavens-Above · Gunter

§ Orbital elements

Epoch: 2026-05-24T21:53:31.665120Z

Period
94.27 min
Inclination
43.0039°
Eccentricity
0.0001812
Mean motion
15.27598752 rev/d
Perigee alt
481.7 km
Apogee alt
484.2 km
Semi-major
6,861.1 km
B*
1.0687e-3
RAAN
327.8578°
Arg perigee
269.6241°
Mean anomaly
90.4403°
Rev number
2,645

§ Raw data

STARLINK-357321 67037U 25294H   26144.91217205  .00029279  00000+0  10687-2 0  99912 67037  43.0039 327.8578 0001812 269.6241  90.4403 15.27598752 26454

JSON: /api/v1/satellites/67037 · /tle

For live sub-satellite position, see the globe view (requires WebGL).

§ Visibility from observer

Set your observer location to see the next 7 days of passes ≥ 10°. The values pass through the URL so the page stays shareable.

No JS? Fill the form by hand. The geolocation button needs JavaScript.